Location: Juniper Campground
(35.7953°N, 106.2814°W)
Time: 10:39:46
(UTC-07:00)

Envisat - Pass Details

Date: 25 August 2018
Orbit: 764 x 766 km, 98.2° (Epoch: 16 November)

Event Time Altitude Azimuth Distance (km) Brightness Sun altitude
Rises 20:09:26 0° 164° (SSE) 3,208 5.9 -6.2°
Reaches altitude 10° 20:11:43 10° 164° (SSE) 2,286 5.1 -6.6°
Maximum altitude 20:16:46 84° 76° (ENE) 770 3.0 -7.6°
Drops below altitude 10° 20:21:51 10° 349° (N) 2,301 5.9 -8.6°
Sets 20:24:09 0° 349° (N) 3,232 6.7 -9.0°
